EW9845 Weather Reports


time (UTC)temp
F
wind
direction
speed
knots
gust
knots
rain 1hr
in
rain 24hr
in
rain mn
in
humidity
%
barometer
mb
20260507011543 62 333 0.0 0.0 0.00 0.06 0.06 79 1011.4
20260507010042 63 333 0.0 0.0 0.00 0.06 0.06 78 1011.0
20260507004544 63 332 0.0 0.0 0.00 0.06 0.06 78 1010.7
20260507003042 63 332 0.0 0.0 0.00 0.06 0.06 79 1010.6
20260507001542 63 332 0.0 0.0 0.00 0.06 0.06 77 1010.7
20260507000040 64 332 0.0 0.0 0.00 0.06 0.06 78 1010.5
20260506234540 65 331 0.0 0.0 0.00 0.06 0.06 77 1010.2
20260506233039 65 331 0.0 0.9 0.00 0.06 0.06 77 1010.3
20260506231549 65 331 0.0 0.0 0.00 0.06 0.06 76 1010.0
20260506230051 65 331 0.0 0.0 0.00 0.06 0.06 78 1010.1
20260506224539 65 333 0.0 0.0 0.00 0.06 0.06 77 1009.8
20260506223138 65 333 0.0 0.0 0.00 0.06 0.06 78 1009.7
20260506221535 63 332 0.0 0.0 0.00 0.06 0.06 80 1009.9
20260506220037 63 332 0.0 0.0 0.00 0.06 0.06 77 1009.8
20260506214534 63 332 0.0 0.0 0.00 0.06 0.06 80 1009.7
20260506213042 62 332 0.0 0.0 0.00 0.06 0.06 79 1010.0
20260506211546 61 12 0.0 0.0 0.00 0.06 0.06 81 1010.1
20260506210035 61 21 0.0 0.0 0.00 0.06 0.06 82 1010.6
20260506204534 60 331 0.0 0.0 0.00 0.06 0.06 83 1011.0
20260506203032 59 53 0.0 0.0 0.00 0.06 0.06 84 1010.4
20260506201538 59 306 0.0 0.0 0.00 0.06 0.06 85 1010.8
20260506200032 58 304 0.0 0.0 0.00 0.06 0.06 85 1010.8
20260506194532 58 304 0.0 0.0 0.00 0.06 0.06 84 1010.8
20260506193030 58 360 0.0 0.0 0.00 0.06 0.06 85 1011.0
20260506191530 58 317 0.0 0.9 0.00 0.06 0.06 86 1010.9
20260506190030 57 24 0.0 0.0 0.00 0.06 0.06 87 1011.0
20260506184529 56 25 0.0 0.0 0.00 0.06 0.06 87 1011.2
20260506183036 57 290 0.0 0.9 0.00 0.06 0.06 87 1011.2
20260506181528 57 315 0.0 3.5 0.00 0.06 0.06 87 1010.9
20260506180028 57 318 0.0 0.0 0.00 0.06 0.06 89 1011.0
20260506174527 56 319 0.0 0.0 0.00 0.06 0.06 89 1011.1
20260506173026 56 320 0.0 0.0 0.00 0.06 0.06 90 1010.9
20260506171529 56 44 0.0 1.7 0.00 0.06 0.06 91 1010.8
20260506170024 56 48 0.0 0.0 0.00 0.06 0.06 91 1010.6
20260506164523 56 53 0.0 0.0 0.00 0.06 0.06 91 1010.7
20260506163023 56 53 0.0 0.0 0.00 0.06 0.06 91 1010.1
20260506161523 56 52 0.0 0.0 0.00 0.06 0.06 93 1009.5
20260506160023 55 348 0.0 0.0 0.03 0.06 0.06 93 1009.7
20260506154520 54 263 0.0 3.5 0.05 0.06 0.06 93 1010.0
20260506153020 55 15 0.0 7.0 0.06 0.06 0.06 93 1008.8
20260506151520 54 59 0.9 4.3 0.06 0.06 0.06 92 1007.5
20260506150018 53 107 0.0 0.0 0.03 0.03 0.03 92 1008.8
20260506144516 53 42 0.0 0.0 0.01 0.01 0.01 91 1009.4
20260506143026 54 325 0.0 0.9 0.00 0.00 0.00 90 1010.5
20260506141511 55 62 0.0 0.9 0.00 0.00 0.00 88 1009.7
20260506140009 56 42 0.0 0.9 0.00 0.00 0.00 86 1009.6
20260506134504 57 360 0.0 1.7 0.00 0.00 0.00 84 1010.6
20260506133102 58 34 0.0 1.7 0.00 0.00 0.00 84 1009.0
20260506131558 58 344 0.0 0.0 0.00 0.00 0.00 84 1008.7
20260506124555 59 50 0.0 0.0 0.00 0.00 0.00 84 1007.6
20260506123050 60 51 0.0 0.0 0.00 0.00 0.00 82 1007.0
20260506121552 61 52 0.0 0.0 0.00 0.00 0.00 81 1007.1
20260506120045 61 52 0.0 0.0 0.00 0.00 0.00 81 1006.9
20260506114639 62 52 0.0 0.0 0.00 0.00 0.00 81 1006.5
20260506113038 62 52 0.0 0.0 0.00 0.00 0.00 80 1006.3
20260506111536 63 52 0.0 0.0 0.00 0.00 0.00 80 1006.5
20260506110033 64 52 0.0 0.0 0.00 0.00 0.00 80 1006.1
20260506104531 64 52 0.0 0.0 0.00 0.00 0.00 80 1006.1
20260506103030 65 52 0.0 0.0 0.00 0.00 0.00 80 1005.7
20260506101526 65 52 0.0 0.0 0.00 0.00 0.00 79 1005.5
20260506100027 66 52 0.0 0.0 0.00 0.00 0.00 79 1005.3
20260506094521 67 53 0.0 0.9 0.00 0.00 0.00 78 1005.2
20260506093018 67 53 0.0 0.9 0.00 0.00 0.00 78 1004.9
20260506091517 68 53 0.0 0.0 0.00 0.00 0.00 78 1004.8
20260506090019 68 53 0.0 0.0 0.00 0.00 0.00 77 1004.6
20260506084512 69 52 0.0 0.0 0.00 0.00 0.00 77 1004.7
20260506083011 70 52 0.0 0.0 0.00 0.00 0.00 78 1004.5
20260506081509 70 52 0.0 0.0 0.00 0.00 0.00 79 1004.2
20260506073008 69 52 0.0 0.0 0.00 0.00 0.00 78 1004.5
20260506071508 69 52 0.0 0.0 0.00 0.00 0.00 79 1004.5
20260506061603 69 52 0.0 0.0 0.00 0.00 0.00 77 1004.4
20260506044547 74 178 0.0 0.0 0.00 0.00 0.00 85 1004.3
20260506043043 74 178 0.0 0.0 0.00 0.00 0.00 85 1004.2
20260506041541 74 178 0.0 0.0 0.00 0.00 0.00 84 1004.1
20260506040044 75 178 0.0 0.0 0.00 0.00 0.00 82 1003.5
20260506034543 76 178 0.0 0.0 0.00 0.00 0.00 81 1003.2
20260506033044 76 178 0.0 0.0 0.00 0.00 0.00 80 1002.9
20260506031547 77 178 0.0 0.0 0.00 0.00 0.00 78 1002.8
20260506030041 78 178 0.0 0.0 0.00 0.00 0.00 76 1002.5
20260506024546 79 178 0.0 0.0 0.00 0.00 0.00 75 1002.2
20260506023037 79 179 0.0 0.0 0.00 0.00 0.00 74 1002.0
20260506021547 79 178 0.0 0.0 0.00 0.00 0.00 73 1001.8
20260506020037 79 178 0.0 0.0 0.00 0.00 0.00 73 1001.6
20260506014536 80 178 0.0 0.0 0.00 0.00 0.00 72 1001.4
20260506013035 81 178 0.0 0.0 0.00 0.00 0.00 70 1001.2